Regional Weather Roundup
Issued by NWS Bismarck, ND

Home | Current Version | Previous Version | Text Only | Print | Product List | Glossary On
Versions: 1 2 3 4 5 6 7 8 9 10 11 12 13 14 15 16 17 18 19 20 21 22 23 24 25 26 27 28 29 30 31 32 33 34 35 36 37 38 39 40 41 42 43 44 45 46 47 48 49 50
000
ASUS43 KBIS 020402
RWRBIS

NWR BROADCAST TEXT
NATIONAL WEATHER SERVICE BISMARCK ND
1100 PM CDT SAT AUG 01 2015

NOTE: "FAIR" INDICATES FEW OR NO CLOUDS BELOW 12,000 FEET WITH NO
SIGNIFICANT WEATHER AND/OR OBSTRUCTIONS TO VISIBILITY.


CITY           SKY/WX    TMP DP  RH WIND       PRES   REMARKS
WILLISTON      CLEAR     75  55  49 N16       29.83R
MINOT          CLEAR     74  56  53 SW8       29.70R
MINOT AFB      NOT AVBL
BISMARCK       PTCLDY    72  58  61 CALM      29.73R
DICKINSON      CLEAR     64  44  48 W7        29.82R
GARRISON         N/A     67  57  70 W7        29.71S
HETTINGER ARPT CLEAR     66  47  50 CALM      29.86R
JAMESTOWN      CLEAR     71  66  84 SE7       29.69F
HAZEN          FAIR      72  52  49 SW5       29.74S
STANLEY        FAIR      70  61  73 N28G36    29.80R
$$

CITY           SKY/WX    TMP DP  RH WIND       PRES   REMARKS
GRAND FORKS    PTCLDY    69  62  78 S6        29.66F
GRAND FORKS AF NOT AVBL
DEVILS LAKE    MOCLDY    72  61  68 SE5       29.69R
FARGO          CLEAR     69  65  86 SE5       29.70F
CAVALIER       FAIR      72  63  73 W8        29.66R
GRAFTON        FAIR      70  64  83 SW8       29.66F
GWINNER          N/A     72  72 100 CALM      29.73F
LANGDON        FAIR      64  63  94 SW6       29.73R
$$

CITY           SKY/WX    TMP DP  RH WIND       PRES   REMARKS
ABERDEEN       CLEAR     72  64  76 W7        29.75S
MOBRIDGE       CLEAR     69  62  78 SE7       29.74F
BUFFALO          N/A     77  35  21 N15       29.82R
RAPID CITY     CLEAR     71  55  56 S8        29.93R
GLASGOW        CLEAR     74  57  55 NE16G24   29.86R
SIDNEY         CLEAR    N/A N/A N/A N10       29.82R
WOLF POINT     CLEAR     75  58  55 NE13      29.87R
GLENDIVE         N/A    N/A N/A N/A MISG        N/A
MILES CITY     CLEAR     79  35  20 NE8       29.85R
BAKER          CLEAR     74  36  25 CALM      29.88R
$$

CITY           SKY/WX    TMP DP  RH WIND       PRES   REMARKS
BILLINGS       PTCLDY    83  30  14 N7        29.93R
GREAT FALLS    CLEAR     70  31  23 NW6       29.92R
$$




USA.gov is the U.S. government's official web portal to all federal, state and local government web resources and services.